Back to catalog

ARIANE 5 DEB

SYLDA

AliveUNKNOWN
NORAD 29164·DEBRIS·🇫🇷 France

Launched May 27, 2006 from Guiana Space Centre

Loading…

Next Passes (next 24 hours)

TLE

FreshSource: Space-Track

Epoch: Sep 14, 2026, 03:40 UTC

1 29164U 06020C   26257.15307092  .00173667 -96434-5  32342-2 0  9997
2 29164   6.7937 325.3434 1974763  78.9116 302.5557 11.55210654413330

Track ARIANE 5 DEB in real time with AllMySat

Download on the App Store